Regional Weather Roundup
Issued by NWS

Home | Current Version | Previous Version | Text Only | Print | Product List | Glossary Off
Versions: 1 2 3 4 5 6 7 8 9 10 11 12 13 14 15 16 17 18 19 20 21 22 23 24 25 26 27 28 29 30 31 32 33 34 35 36 37 38 39 40 41 42 43 44 45 46 47 48 49 50

000
ASUS43 KDMX 101906
RWRIA

WEATHER ROUNDUP FOR IOWA
NATIONAL WEATHER SERVICE DES MOINES IA
100 PM CST SAT DEC 10 2016

NOTE: "FAIR" INDICATES FEW OR NO CLOUDS BELOW 12,000 FEET WITH NO
SIGNIFICANT WEATHER AND/OR OBSTRUCTIONS TO VISIBILITY.

* - THESE STATIONS ARE NOT NWS STATIONS...THUS NOT UNDER NWS
QUALITY CONTROL.  THEY ALSO DO NOT REPORT WEATHER SUCH
AS PRECIPITATION OR FOG.

IAZ001>003-012>014-020>022-031>034-043>046-102000-
   NORTHWEST IOWA

CITY           SKY/WX    TMP DP  RH WIND       PRES   REMARKS
CARROLL *      PTSUNNY   23  21  93 SE10      30.26F FOG     WCI  12
CHEROKEE *     CLOUDY    19  16  88 E9        30.26F WCI   8
DENISON *      CLOUDY    23  19  86 SE9       30.21F WCI  13
LE MARS *      CLOUDY    21  18  86 E9G15     30.25F WCI  11
ORANGE CITY *  CLOUDY    18  16  93 E9        30.23F WCI   6
SHELDON *      LGT SNOW  14  12  92 E13       30.24F WCI   0
SIOUX CITY     CLOUDY    25  19  78 SE12      30.23F WCI  14
SPENCER        LGT SNOW  14  10  84 E8        30.28F FOG     WCI   3
STORM LAKE *   CLOUDY    19  16  86 SE10      30.24F WCI   8
$$

IAZ055>058-069>071-079>083-090>094-102000-
   SOUTHWEST IOWA

CITY           SKY/WX    TMP DP  RH WIND       PRES   REMARKS
ATLANTIC *     CLOUDY    27  19  74 SE8       30.24F WCI  18
AUDUBON *      CLOUDY    25  19  80 SE9       30.24F FOG     WCI  15
CLARINDA *     CLOUDY    30  16  55 SE8G15    30.26F WCI  23
COUNCIL BLFS * CLOUDY    28  18  64 S15       30.20F WCI  17
CRESTON *      CLOUDY    28  16  59 S13       30.26F WCI  18
HARLAN  *      CLOUDY    25  21  86 SE13      30.26F WCI  13
LAMONI         CLOUDY    29  13  51 S13       30.27F WCI  19
RED OAK *      PTSUNNY   30  16  55 SE15G21   30.24F WCI  19
SHENANDOAH *   PTSUNNY   32  16  51 SE12      30.24F WCI  23
$$

IAZ047>049-059>061-072>074-084-102000-
   CENTRAL IOWA

CITY           SKY/WX    TMP DP  RH WIND       PRES   REMARKS
AMES           LGT SNOW  23  21  92 SE10      30.31F FOG     WCI  12
ANKENY *       CLOUDY    23  21  93 SE9       30.33F FOG     WCI  13
BOONE *        CLOUDY    21  19  93 SE13      30.28F WCI   9
CHARITON *     CLOUDY    25  19  80 SE12      30.30F WCI  14
DES MOINES     FLURRIES  24  20  84 SE9       30.31F WCI  14
GRINNELL*      LGT SNOW  22  20  90 SE12      30.34F WCI  11
KNOXVILLE *    MIX PCPN  23  19  86 SE8       30.31F WCI  14
MARSHALLTOWN   LGT SNOW  22  19  89 SE10      30.33F VSB 3/4 WCI  11
NEWTON *       CLOUDY    23  19  86 SE14      30.32F FOG     WCI  11
PELLA *        LGT SNOW  24  20  85 SE9       30.35F WCI  14
PERRY *        LGT SNOW  24  22  93 SE10      30.29F WCI  13
$$

IAZ004>006-015-016-023>025-035-036-102000-
   NORTH CENTRAL IOWA

CITY           SKY/WX    TMP DP  RH WIND       PRES   REMARKS
ALGONA *       LGT SNOW  18  14  86 SE7       30.30F WCI   8
CLARION *      CLOUDY    19  18  93 SE8       30.32F FOG     WCI   9
ESTHERVILLE    LGT SNOW  11   8  88 E7        30.30F FOG     WCI   0
FORT DODGE *   CLOUDY    21  16  79 SE6       30.30F WCI  14
MASON CITY     LGT SNOW  15  11  83 SE8       30.35F VSB 1   WCI   4
FOREST CITY *  LGT SNOW  18  14  86 SE8       30.32F VSB 3/4 WCI   7
WEBSTER CITY * LGT SNOW  21  19  93 SE10      30.29F WCI  10
IOWA FALLS *   LGT SNOW  21  18  88 SE10      30.33F VSB 1   WCI  10
$$

IAZ007>011-017>019-026>030-037>042-050>054-066-102000-
   NORTHEAST IOWA

CITY           SKY/WX    TMP DP  RH WIND       PRES   REMARKS
CEDAR RAPIDS   LGT SNOW  23  18  81 S8        30.37F WCI  14
CHARLES CITY * LGT SNOW  16  12  86 SE8       30.34F WCI   5
CLINTON *      FLURRIES  25  16  68 S6        30.42F WCI  18
DECORAH *      LGT SNOW  12   9  85 E5        30.34F VSB 1   WCI   4
DUBUQUE        LGT SNOW  19  14  81 S7        30.37F WCI  10
MONTICELLO *   CLOUDY    21  16  79 MISG      30.38F HAZE
OELWEIN *      CLOUDY    19  16  86 SE13      30.35F FOG     WCI   7
WATERLOO       LGT SNOW  21  16  81 SE10      30.36F WCI  10
$$

IAZ064-065-067-068-078-102000-
   EAST CENTRAL IOWA

CITY           SKY/WX    TMP DP  RH WIND       PRES   REMARKS
DAVENPORT      CLOUDY    25  13  60 SE9       30.41F WCI  15
IOWA CITY      LGT SNOW  24  17  74 SE8       30.41F WCI  15
MUSCATINE *    CLOUDY    27  14  59 S9        30.42F WCI  17
QUAD CITIES    CLOUDY    26  13  57 S7        30.42F WCI  18
$$

IAZ062-063-075>077-085>089-095>099-102000-
   SOUTHEAST IOWA

CITY           SKY/WX    TMP DP  RH WIND       PRES   REMARKS
BURLINGTON     LGT SNOW  24  19  81 S9        30.40F WCI  14
FAIRFIELD *    CLOUDY    23  19  86 SE10      30.37F HAZE    WCI  12
FORT MADISON * FLURRIES  25  18  74 SE8       30.40F WCI  16
KEOKUK *       CLOUDY    28  10  47 SE9G15    30.38F WCI  20
OSKALOOSA *    LGT SNOW  23  20  89 SE12      30.36F WCI  12
CENTERVILLE *    N/A     28  16  59 SE10      30.33F WCI  19
OTTUMWA        LGT SNOW  24  19  81 SE9       30.34F WCI  14
WASHINGTON *   LGT SNOW  25  19  80 S10       30.40F VSB 3/4 WCI  15
$$

ABBREVIATIONS USED IN REMARKS
   TC - TEMPERATURES IN CELSIUS
  WCI - WIND CHILL INDEX
   HX - HEAT INDEX
  VSB - VISIBILITY
$$





USA.gov is the U.S. government's official web portal to all federal, state and local government web resources and services.